^^
Peaceful Hills Weather Station Historical Data
 
Daily Summary for August 24, 2019 Units:  English    Metric   Both
Daily Weekly Monthly Yearly Custom
  Current: High: Low: Average:
Temperature: 80.3 °F 80.3 °F 74.8 °F 75.6 °F
Dew Point: 74.9 °F 75 °F 71.9 °F 72.5 °F
Humidity: 83.6% 91% 83.6% 90%
Wind Speed: 2.6mph 4.2mph 0mph 0.3mph
Wind Gust: 7mph 7mph - -
WindESE - - SE
Pressure: 30.00 in 30.00 in 29.96 in -
Precipitation: 0.10 in      
Historical Graphs
 
 
Tabular Data for August 24, 2019
Time Temperature Dew Point Pressure Wind Wind Speed Wind Gust Humidity Rainfall Rate (Hourly)
00:04 75 °F 71.9 °F 29.96 in Calm   5 mph 90% 0.36 in
00:09 75.1 °F 72 °F 29.96 in ENE 0.4 mph 5 mph 90% 0.29 in
00:14 75.1 °F 72 °F 29.97 in East 1.6 mph 5 mph 90% 0.20 in
00:19 75.1 °F 72 °F 29.97 in East 0.4 mph 4 mph 90% 0.15 in
00:24 75.1 °F 72 °F 29.96 in Calm   2 mph 90% 0.15 in
00:29 75.1 °F 72 °F 29.96 in Calm     90% 0.16 in
00:34 75.2 °F 72.1 °F 29.97 in Calm     90% 0.17 in
00:39 75.2 °F 72.1 °F 29.96 in Calm   2 mph 90% 0.19 in
00:44 75.2 °F 72.1 °F 29.96 in Calm   2 mph 90% 0.19 in
00:49 75.2 °F 72.1 °F 29.97 in Calm     90% 0.14 in
00:54 75.3 °F 72.2 °F 29.97 in Calm     90% 0.11 in
00:59 75.3 °F 72.2 °F 29.97 in East 0.4 mph 2 mph 90% 0.10 in
01:04 75.3 °F 72.2 °F 29.97 in Calm     90% 0.10 in
01:09 75.3 °F 72.2 °F 29.96 in Calm   2 mph 90% 0.10 in
01:14 75.3 °F 72.2 °F 29.97 in Calm     90% 0.09 in
01:19 75.3 °F 72.2 °F 29.97 in Calm   2 mph 90% 0.09 in
01:24 75.2 °F 72.1 °F 29.96 in Calm     90% 0.09 in
01:29 75.2 °F 72.1 °F 29.96 in Calm     90% 0.09 in
01:34 75.2 °F 72.1 °F 29.97 in Calm     90% 0.08 in
01:39 75.1 °F 72.1 °F 29.97 in Calm     90.2% 0.06 in
01:44 75.2 °F 72.1 °F 29.97 in Calm     90% 0.03 in
01:49 75.2 °F 72.3 °F 29.97 in Calm     90.8% 0.01 in
01:54 75.2 °F 72.4 °F 29.97 in Calm     91% 0.01 in
01:59 75.2 °F 72.4 °F 29.97 in Calm     91% 0.01 in
02:04 75.2 °F 72.4 °F 29.97 in Calm     91% 0.00 in
02:09 75.3 °F 72.5 °F 29.97 in Calm     91% 0.00 in
02:14 75.4 °F 72.6 °F 29.97 in Calm     91% 0.00 in
02:19 75.4 °F 72.6 °F 29.97 in Calm     91% 0.00 in
02:24 75.4 °F 72.6 °F 29.97 in Calm     91% 0.00 in
02:29 75.4 °F 72.6 °F 29.97 in Calm     91% 0.00 in
02:34 75.4 °F 72.6 °F 29.97 in Calm     91% 0.00 in
02:39 75.4 °F 72.6 °F 29.97 in Calm     91% 0.00 in
02:44 75.4 °F 72.6 °F 29.97 in Calm   2 mph 91% 0.00 in
02:49 75.5 °F 72.7 °F 29.98 in Calm   2 mph 91% 0.00 in
02:54 75.5 °F 72.7 °F 29.98 in Calm     91% 0.00 in
02:59 75.5 °F 72.7 °F 29.98 in Calm   2 mph 91% 0.00 in
03:04 75.5 °F 72.7 °F 29.98 in Calm   2 mph 91% 0.00 in
03:09 75.5 °F 72.7 °F 29.98 in Calm   4 mph 91% 0.00 in
03:14 75.5 °F 72.7 °F 29.98 in Calm   4 mph 91% 0.00 in
03:19 75.4 °F 72.6 °F 29.98 in Calm     91% 0.00 in
03:24 75.4 °F 72.6 °F 29.97 in Calm   2 mph 91% 0.00 in
03:29 75.3 °F 72.5 °F 29.97 in Calm     91% 0.00 in
03:34 75.3 °F 72.5 °F 29.97 in Calm     91% 0.00 in
03:39 75.2 °F 72.4 °F 29.97 in Calm     91% 0.00 in
03:44 75.1 °F 72.3 °F 29.97 in Calm     91% 0.00 in
03:49 75 °F 72.2 °F 29.98 in Calm     91% 0.00 in
03:54 74.9 °F 72.1 °F 29.98 in Calm     91% 0.00 in
03:59 74.9 °F 72.1 °F 29.98 in Calm     91% 0.00 in
04:04 74.8 °F 72 °F 29.98 in Calm     91% 0.00 in
04:09 74.8 °F 72 °F 29.98 in Calm     91% 0.00 in
04:14 74.9 °F 72.1 °F 29.98 in Calm     91% 0.00 in
04:19 74.9 °F 72.1 °F 29.97 in Calm     91% 0.00 in
04:24 74.9 °F 72.1 °F 29.97 in Calm     91% 0.00 in
04:29 75 °F 72.2 °F 29.97 in Calm     91% 0.00 in
04:34 75.1 °F 72.3 °F 29.98 in Calm     91% 0.00 in
04:39 75.1 °F 72.3 °F 29.98 in Calm     91% 0.00 in
04:44 75.2 °F 72.4 °F 29.98 in Calm     91% 0.00 in
04:49 75.2 °F 72.4 °F 29.98 in Calm   2 mph 91% 0.00 in
04:54 75.3 °F 72.5 °F 29.97 in Calm   2 mph 91% 0.00 in
04:59 75.2 °F 72.4 °F 29.98 in Calm     91% 0.00 in
05:04 75.2 °F 72.4 °F 29.98 in Calm     91% 0.00 in
05:09 75.2 °F 72.4 °F 29.98 in Calm     91% 0.00 in
05:14 75.2 °F 72.4 °F 29.97 in Calm     91% 0.00 in
05:19 75.2 °F 72.4 °F 29.98 in Calm     91% 0.00 in
05:24 75.2 °F 72.4 °F 29.98 in Calm     91% 0.00 in
05:29 75.2 °F 72.4 °F 29.98 in Calm     91% 0.00 in
05:34 75.2 °F 72.4 °F 29.97 in East 0.4 mph 4 mph 91% 0.00 in
05:39 75.2 °F 72.4 °F 29.98 in Calm   2 mph 91% 0.00 in
05:44 75.2 °F 72.4 °F 29.98 in Calm   2 mph 91% 0.00 in
05:49 75.2 °F 72.4 °F 29.98 in Calm   2 mph 91% 0.00 in
05:54 75.1 °F 72.3 °F 29.98 in Calm   2 mph 91% 0.00 in
05:59 75.1 °F 72.3 °F 29.98 in Calm   2 mph 91% 0.00 in
06:04 75.1 °F 72.3 °F 29.98 in Calm     91% 0.00 in
06:09 75.1 °F 72.3 °F 29.98 in Calm     91% 0.00 in
06:14 75.1 °F 72.3 °F 29.98 in Calm     91% 0.00 in
06:19 75.1 °F 72.3 °F 29.98 in Calm     91% 0.00 in
06:24 75.1 °F 72.3 °F 29.98 in Calm     91% 0.00 in
06:29 75 °F 72.2 °F 29.98 in Calm     91% 0.00 in
06:34 74.9 °F 72.1 °F 29.98 in Calm     91% 0.00 in
06:39 74.9 °F 72.1 °F 29.98 in Calm     91% 0.00 in
06:44 74.9 °F 72.1 °F 29.98 in Calm     91% 0.00 in
06:49 74.9 °F 72.1 °F 29.99 in Calm     91% 0.00 in
06:54 75 °F 72.2 °F 29.99 in Calm     91% 0.00 in
06:59 75 °F 72.2 °F 29.99 in Calm     91% 0.00 in
07:04 75.1 °F 72.3 °F 29.99 in Calm     91% 0.00 in
07:09 75.1 °F 72.3 °F 29.99 in Calm     91% 0.00 in
07:14 75.1 °F 72.3 °F 29.99 in Calm     91% 0.00 in
07:19 75.1 °F 72.3 °F 29.99 in Calm   2 mph 91% 0.00 in
07:24 75.1 °F 72.3 °F 29.98 in East 0.4 mph 2 mph 91% 0.00 in
07:29 75.1 °F 72.3 °F 29.98 in Calm   2 mph 91% 0.00 in
07:34 75.1 °F 72.3 °F 29.98 in Calm     91% 0.00 in
07:39 75.1 °F 72.3 °F 29.98 in Calm     91% 0.00 in
07:44 75.1 °F 72.3 °F 29.98 in Calm     91% 0.00 in
07:49 75.1 °F 72.3 °F 29.98 in Calm     91% 0.00 in
07:54 75.1 °F 72.3 °F 29.98 in Calm     91% 0.00 in
07:59 75.1 °F 72.3 °F 29.99 in Calm   2 mph 91% 0.00 in
08:04 74.9 °F 72.1 °F 29.99 in Calm   2 mph 91% 0.00 in
08:09 74.9 °F 72.1 °F 29.99 in Calm     91% 0.00 in
08:14 74.9 °F 72.1 °F 29.99 in Calm     91% 0.00 in
08:19 75 °F 72.2 °F 29.99 in Calm     91% 0.00 in
08:24 74.9 °F 72.1 °F 29.99 in Calm     91% 0.00 in
08:29 74.9 °F 72.1 °F 30.00 in Calm     91% 0.00 in
08:34 75 °F 72.2 °F 30.00 in Calm     91% 0.00 in
08:39 74.8 °F 72 °F 29.99 in Calm     91% 0.00 in
08:44 74.8 °F 72 °F 29.99 in Calm     91% 0.00 in
08:49 74.9 °F 72.1 °F 29.99 in Calm     91% 0.00 in
08:54 75.1 °F 72.3 °F 29.99 in Calm     91% 0.00 in
08:59 75.1 °F 72.3 °F 29.99 in Calm     91% 0.00 in
09:04 75 °F 72.2 °F 29.99 in Calm     91% 0.00 in
09:09 75.1 °F 72.3 °F 29.99 in Calm   2 mph 91% 0.00 in
09:14 75.3 °F 72.5 °F 29.99 in Calm   2 mph 91% 0.00 in
09:19 75.4 °F 72.5 °F 29.99 in Calm   2 mph 90.6% 0.00 in
09:24 75.4 °F 72.3 °F 29.99 in Calm   2 mph 90% 0.00 in
09:29 75.5 °F 72.5 °F 29.99 in Calm   2 mph 90.2% 0.00 in
09:34 75.8 °F 73 °F 29.99 in East 1.2 mph 5 mph 90.8% 0.00 in
09:39 76 °F 72.9 °F 29.99 in East 0.8 mph 5 mph 90% 0.00 in
09:44 76.1 °F 73 °F 29.99 in ESE 0.4 mph 4 mph 90% 0.00 in
09:49 76.2 °F 73.1 °F 29.99 in ESE 1.2 mph 4 mph 90% 0.00 in
09:54 76.2 °F 72.8 °F 29.99 in SSE 0.4 mph 7 mph 89.2% 0.00 in
09:59 76.4 °F 72.9 °F 29.99 in SSE 0.8 mph 5 mph 89% 0.00 in
10:04 76.5 °F 73 °F 29.99 in ESE 0.8 mph 5 mph 89% 0.00 in
10:09 76.6 °F 73.1 °F 29.99 in ESE 0.4 mph 4 mph 89% 0.00 in
10:14 76.7 °F 73.2 °F 29.99 in SSE 1 mph 5 mph 89% 0.00 in
10:19 76.8 °F 73 °F 29.99 in ESE 1.2 mph 7 mph 88.2% 0.00 in
10:24 76.9 °F 73.2 °F 29.99 in SE 2 mph 5 mph 88.2% 0.00 in
10:29 77.1 °F 73.3 °F 29.99 in SSE 1.6 mph 5 mph 88% 0.00 in
10:34 77.4 °F 73.5 °F 29.99 in SE 1.6 mph 7 mph 87.8% 0.00 in
10:39 77.5 °F 73.3 °F 29.99 in ESE 3.4 mph 7 mph 87% 0.00 in
10:44 77.8 °F 73.6 °F 29.99 in SSE 1.6 mph 7 mph 87% 0.00 in
10:49 78.3 °F 74.1 °F 29.99 in South 1.8 mph 5 mph 87% 0.00 in
10:54 78.5 °F 74.3 °F 29.99 in SSE 2.6 mph 7 mph 87% 0.00 in
10:59 78.6 °F 74.2 °F 29.99 in ESE 1.6 mph 7 mph 86.2% 0.00 in
11:04 79 °F 74.5 °F 30.00 in SSE 1.6 mph 5 mph 86.2% 0.00 in
11:09 79.5 °F 74.8 °F 30.00 in SSW 1.6 mph 5 mph 85.8% 0.00 in
11:14 79.9 °F 75 °F 30.00 in SSE 4.2 mph 7 mph 85.2% 0.00 in
11:19 80.1 °F 74.9 °F 30.00 in ESE 1.6 mph 5 mph 84.2% 0.00 in
11:24 80.3 °F 74.9 °F 30.00 in ESE 2.6 mph 7 mph 83.6% 0.00 in
Hot Springs, Arkansas, USA
Compliments of Weather Underground - 4 mb